Date String (YYYY-MM-DD hh:mm:ss) UTC,Instrument flags,absolute air pressure of the measurement (hPa),sample flow rate (lpm),inlet stack bypass flow (lpm),air temperature of the measurement (°C),ambient temperature measured by the external sensor (°C),aerosol sample conditioner tube jacket temperature (°C),OPC LED temperature (°C),internal box temperature (°C),relative humidity of the measurement (%),span deviation,mass concentration of particles derived from Lorenz-Mie calculation of OPC scattering (μg/m³),mass concentration of particles derived from Lorenz-Mie calculation of OPC scattering (μg/m³),mass concentration of particles derived from Lorenz-Mie calculation of OPC scattering (μg/m³)
DateTimeUTC,F1_M11,P_M11,Q1_M11,Q2_M11,T1_M11,T2_M11,T3_M11,T4_M11,T5_M11,U1_M11,ZSPAN_M11,X2_M11,X0_M11,X1_M11
2023-12-19 17:00:00,SystemResetWarning,0826.1,5.00,000.00,024.4,023.7,000.0,032.5,025.7,7.8,0000.0,0001.15,0003.53,0000.96
2023-12-19 17:01:00,SystemResetWarning,0826.1,5.00,000.00,024.4,023.7,000.0,032.5,025.8,8.0,0000.0,0001.16,0003.68,0000.96
2023-12-19 17:02:00,SystemResetWarning,0826.1,5.00,000.00,024.4,023.7,000.0,032.5,025.9,8.2,0000.0,0001.16,0003.72,0000.95
2023-12-19 17:03:00,SystemResetWarning,0826.1,4.99,000.00,024.4,023.7,000.0,032.6,025.9,8.3,0000.0,0001.14,0005.00,0000.94
2023-12-19 17:04:00,SystemResetWarning,0826.0,5.00,000.00,024.4,023.7,000.0,032.6,025.9,8.4,0000.0,0001.13,0005.51,0000.93
2023-12-19 17:05:00,SystemResetWarning,0826.1,5.01,000.00,024.4,023.7,000.0,032.6,025.8,8.6,0000.0,0001.14,0005.85,0000.93
2023-12-19 17:06:00,SystemResetWarning,0826.0,5.01,000.00,024.4,023.7,000.0,032.6,025.9,8.5,0000.0,0001.11,0006.08,0000.93
2023-12-19 17:07:00,SystemResetWarning,0826.0,5.00,000.00,024.4,023.7,000.0,032.6,025.9,8.7,0000.0,0001.09,0005.96,0000.92
2023-12-19 17:08:00,SystemResetWarning,0826.0,5.00,000.00,024.4,023.7,000.0,032.6,025.9,8.8,0000.0,0001.07,0004.48,0000.91
2023-12-19 17:09:00,SystemResetWarning,0826.0,5.00,000.00,024.4,023.7,000.0,032.6,025.9,8.8,0000.0,0001.09,0004.54,0000.90
2023-12-19 17:10:00,SystemResetWarning,0826.0,5.00,000.00,024.5,023.7,000.0,032.6,025.8,8.9,0000.0,0001.12,0004.60,0000.89
2023-12-19 17:11:00,SystemResetWarning,0826.0,5.00,000.00,024.5,023.7,000.0,032.7,025.9,8.9,0000.0,0001.10,0004.30,0000.88
2023-12-19 17:12:00,SystemResetWarning,0826.0,4.99,000.00,024.5,023.7,000.0,032.7,025.9,9.2,0000.0,0001.08,0004.11,0000.86
2023-12-19 17:13:00,SystemResetWarning,0826.0,5.00,000.00,024.5,023.7,000.0,032.7,025.9,9.2,0000.0,0001.05,0004.07,0000.85
2023-12-19 17:14:00,SystemResetWarning,0826.1,5.01,000.00,024.5,023.7,000.0,032.7,025.9,9.1,0000.0,0001.03,0002.75,0000.83
2023-12-19 17:15:00,SystemResetWarning,0826.1,5.01,000.00,024.5,023.7,000.0,032.7,025.9,9.2,0000.0,0001.04,0002.53,0000.83
2023-12-19 17:16:00,SystemResetWarning,0826.0,5.00,000.00,024.5,023.8,000.0,032.7,025.9,9.1,0000.0,0001.03,0002.64,0000.81
2023-12-19 17:17:00,SystemResetWarning,0826.1,4.98,000.00,024.5,023.7,000.0,032.7,025.9,9.0,0000.0,0001.04,0002.26,0000.79
2023-12-19 17:18:00,SystemResetWarning,0826.1,5.01,000.00,024.5,023.8,000.0,032.7,025.9,9.2,0000.0,0001.04,0002.19,0000.78
2023-12-19 17:19:00,SystemResetWarning,0826.1,5.01,000.00,024.5,023.8,000.0,032.7,025.9,9.4,0000.0,0001.01,0002.11,0000.77
2023-12-19 17:20:00,SystemResetWarning,0826.1,5.00,000.00,024.5,023.8,000.0,032.7,025.9,9.6,0000.0,0000.98,0002.04,0000.76
2023-12-19 17:21:00,SystemResetWarning,0826.1,4.99,000.00,024.6,023.8,000.0,032.7,026.0,9.3,0000.0,0000.94,0001.97,0000.74
2023-12-19 17:22:00,SystemResetWarning,0826.1,4.99,000.00,024.6,023.8,000.0,032.7,025.9,9.3,0000.0,0000.92,0001.95,0000.73
2023-12-19 17:23:00,SystemResetWarning,0826.1,5.02,000.00,024.6,023.8,000.0,032.8,025.9,9.3,0000.0,0000.92,0001.95,0000.72
2023-12-19 17:24:00,SystemResetWarning,0826.2,5.01,000.00,024.6,023.8,000.0,032.8,026.0,9.3,0000.0,0000.93,0001.99,0000.72
2023-12-19 17:25:00,SystemResetWarning,0826.2,4.99,000.00,024.6,023.8,000.0,032.8,026.0,9.1,0000.0,0000.93,0002.00,0000.72
2023-12-19 17:26:00,SystemResetWarning,0826.2,4.98,000.00,024.6,023.8,000.0,032.8,026.0,9.3,0000.0,0000.90,0001.79,0000.70
2023-12-19 17:27:00,SystemResetWarning,0826.2,5.00,000.00,024.6,023.8,000.0,032.8,026.0,9.3,0000.0,0000.90,0001.23,0000.70
2023-12-19 17:28:00,SystemResetWarning,0826.2,5.01,000.00,024.6,023.8,000.0,032.8,026.0,9.4,0000.0,0000.92,0001.30,0000.70
2023-12-19 17:29:00,SystemResetWarning,0826.2,5.01,000.00,024.6,023.9,000.0,032.8,026.0,8.1,0000.0,0000.93,0001.43,0000.71
2023-12-19 17:30:00,SystemResetWarning,0826.2,4.99,000.00,024.6,023.9,000.0,032.8,026.1,7.6,0000.0,0000.93,0002.15,0000.71
2023-12-19 17:31:00,SystemResetWarning,0826.2,4.99,000.00,024.6,023.9,000.0,032.8,026.1,7.5,0000.0,0000.92,0002.13,0000.70
2023-12-19 17:32:00,SystemResetWarning,0826.2,4.99,000.00,024.6,023.9,000.0,032.8,026.1,7.8,0000.0,0000.91,0002.15,0000.70
2023-12-19 17:33:00,SystemResetWarning,0826.2,5.00,000.00,024.7,023.9,000.0,032.9,026.1,8.3,0000.0,0000.93,0002.19,0000.70
2023-12-19 17:34:00,SystemResetWarning,0826.2,5.00,000.00,024.7,023.9,000.0,032.9,026.1,8.5,0000.0,0000.95,0002.21,0000.71
2023-12-19 17:35:00,SystemResetWarning,0826.2,5.00,000.00,024.7,024.0,000.0,032.9,026.1,8.3,0000.0,0000.97,0002.32,0000.73
2023-12-19 17:36:00,SystemResetWarning,0826.2,5.00,000.00,024.7,024.0,000.0,032.9,026.1,8.0,0000.0,0001.01,0002.39,0000.76
2023-12-19 17:37:00,SystemResetWarning,0826.2,5.00,000.00,024.7,024.0,000.0,032.9,026.1,7.7,0000.0,0001.06,0002.45,0000.80
2023-12-19 17:38:00,SystemResetWarning,0826.2,5.00,000.00,024.7,024.0,000.0,032.9,026.2,7.8,0000.0,0001.09,0002.50,0000.83
2023-12-19 17:39:00,SystemResetWarning,0826.2,5.00,000.00,024.7,024.0,000.0,032.9,026.2,8.4,0000.0,0001.09,0002.46,0000.83
2023-12-19 17:40:00,SystemResetWarning,0826.2,4.99,000.00,024.7,024.0,000.0,032.9,026.2,8.5,0000.0,0001.06,0002.42,0000.84
2023-12-19 17:41:00,SystemResetWarning,0826.2,4.99,000.00,024.8,024.1,000.0,032.9,026.2,8.3,0000.0,0001.06,0002.07,0000.85
2023-12-19 17:42:00,SystemResetWarning,0826.1,5.00,000.00,024.8,024.1,000.0,032.9,026.2,8.0,0000.0,0001.12,0002.21,0000.89
2023-12-19 17:43:00,SystemResetWarning,0826.1,5.01,000.00,024.8,024.1,000.0,033.0,026.2,8.0,0000.0,0001.15,0002.27,0000.93
2023-12-19 17:44:00,SystemResetWarning,0826.2,5.00,000.00,024.8,024.1,000.0,033.0,026.3,8.0,0000.0,0001.17,0002.75,0000.95
2023-12-19 17:45:00,SystemResetWarning,0826.1,4.99,000.00,024.8,024.1,000.0,033.0,026.3,8.1,0000.0,0001.19,0003.17,0000.96
2023-12-19 17:46:00,SystemResetWarning,0826.2,4.99,000.00,024.8,024.1,000.0,033.0,026.3,8.0,0000.0,0001.17,0003.05,0000.95
2023-12-19 17:47:00,SystemResetWarning,0826.2,5.00,000.00,024.8,024.1,000.0,033.0,026.3,8.2,0000.0,0001.16,0003.02,0000.95
2023-12-19 17:48:00,SystemResetWarning,0826.1,5.01,000.00,024.8,024.1,000.0,033.0,026.3,8.0,0000.0,0001.16,0003.05,0000.94
2023-12-19 17:49:00,SystemResetWarning,0826.1,4.99,000.00,024.8,024.1,000.0,033.0,026.3,8.0,0000.0,0001.15,0003.01,0000.95
2023-12-19 17:50:00,SystemResetWarning,0826.1,4.99,000.00,024.9,024.2,000.0,033.0,026.3,8.0,0000.0,0001.13,0002.95,0000.96
2023-12-19 17:51:00,SystemResetWarning,0826.1,5.02,000.00,024.9,024.2,000.0,033.0,026.3,7.9,0000.0,0001.18,0002.99,0000.98
2023-12-19 17:52:00,SystemResetWarning,0826.1,5.01,000.00,024.9,024.2,000.0,033.1,026.3,8.0,0000.0,0001.20,0002.65,0001.00
2023-12-19 17:53:00,SystemResetWarning,0826.1,4.99,000.00,024.9,024.2,000.0,033.1,026.3,8.0,0000.0,0001.20,0002.57,0000.99
2023-12-19 17:54:00,SystemResetWarning,0826.2,4.99,000.00,024.9,024.2,000.0,033.1,026.3,8.2,0000.0,0001.20,0002.56,0000.98
2023-12-19 17:55:00,SystemResetWarning,0826.2,5.00,000.00,024.9,024.2,000.0,033.1,026.3,8.5,0000.0,0001.21,0002.15,0000.98
2023-12-19 17:56:00,SystemResetWarning,0826.2,5.01,000.00,024.9,024.2,000.0,033.1,026.3,8.3,0000.0,0001.23,0001.75,0000.99
2023-12-19 17:57:00,SystemResetWarning,0826.2,5.01,000.00,024.9,024.2,000.0,033.1,026.3,8.5,0000.0,0001.23,0001.75,0000.99
2023-12-19 17:58:00,SystemResetWarning,0826.2,5.00,000.00,024.9,024.2,000.0,033.1,026.4,8.5,0000.0,0001.25,0001.78,0000.98
2023-12-19 17:59:00,SystemResetWarning,0826.1,4.99,000.00,025.0,024.3,000.0,033.1,026.4,8.4,0000.0,0001.25,0001.76,0000.97
